Starlink 11575

operational
NORAD ID: 63308 Int'l Des: 2025-057 Owner: SPXS Country: US Constellation: starlink
LEOCIRCULAR

关于 Starlink 11575

正在加载描述...

实时位置

正在加载3D地球...

即将过境

高度历史

Altitude vs Time

uPlot chart will show altitude changes over time

两行轨道根数

1 63308U 25057B 25354.12518277 .00257274 00000-0 19150-2 0 9996
2 63308 42.9995 24.1698 0002604 232.9235 127.1395 15.71234370 44669
Epoch: Dec 20, 2025 • Age: 22 hours

当前状态

高度 365.8 km
速度 7.69 km/s
星下点 -43.16°S, 175.11°E
发射日期 Mar 18, 2025
运行时间 0.7 years
类型 internet

技术详情

分类 Payload
质量 960.00 kg
干质量 910.00 kg
总质量 960.00 kg
长度 0.30 m
直径 4.10 m
跨度 29.00 m
形状 Box + pan
制造商 SPXS
平台类型 Starlink V2MD
阶段状态 In Orbit
所有者/国家 SPXS/US

大型星座

Loading constellations...